Overview Statistics Trail Chart Weather Telemetry Raw packets
 

This is the latest recevied weather packets stored in our database for station/object K7SKM. If no packets are shown the sender has not sent any weather packets the latest 10 day(s).

<< 108 109 110 111 112 113 114 >>
Time Temp. Humidity Pressure Rain* Wind** Luminosity Snow
1787858841 20.56° C 60% 1022.6 hPa 0 mm - 126 W/m² -
1787858536 20.56° C 60% 1022.8 hPa 0 mm - 138 W/m² -
1787858235 21.67° C 59% 1022.6 hPa 0 mm - 145 W/m² -
1787857932 21.11° C 59% 1022.5 hPa 0 mm - 188 W/m² -
1787857627 20.56° C 60% 1022.7 hPa 0 mm - 188 W/m² -
1787857327 20.56° C 60% 1022.7 hPa 0 mm - 169 W/m² -
1787857026 21.11° C 58% 1022.6 hPa 0 mm - 117 W/m² -
1787856720 21.67° C 55% 1022.7 hPa 0 mm - 106 W/m² -
1787856415 21.11° C 54% 1022.6 hPa 0 mm - 128 W/m² -
1787856110 21.67° C 54% 1022.6 hPa 0 mm - 102 W/m² -
1787855805 21.11° C 54% 1022.7 hPa 0 mm - 116 W/m² -
1787855501 21.67° C 54% 1022.5 hPa 0 mm - 129 W/m² -
1787855196 21.11° C 54% 1022.6 hPa 0 mm - 132 W/m² -
1787854891 21.11° C 54% 1022.6 hPa 0 mm - 152 W/m² -
1787854590 21.11° C 54% 1022.5 hPa 0 mm - 157 W/m² -
1787854285 21.11° C 54% 1022.4 hPa 0 mm - 138 W/m² -
1787853980 21.67° C 52% 1022.3 hPa 0 mm - 153 W/m² -
1787853674 21.67° C 52% 1022.4 hPa 0 mm - 167 W/m² -
1787853374 21.67° C 52% 1022.2 hPa 0 mm - 129 W/m² -
1787853068 21.67° C 53% 1022.4 hPa 0 mm - 134 W/m² -
1787852763 21.67° C 52% 1022.3 hPa 0 mm - 136 W/m² -
1787852462 22.22° C 54% 1022.2 hPa 0 mm - 213 W/m² -
1787852161 21.11° C 57% 1022 hPa 0 mm - 122 W/m² -
1787851857 21.11° C 58% 1022 hPa 0 mm - 118 W/m² -
1787851555 21.11° C 59% 1022 hPa 0 mm - 89 W/m² -

* Rain latest hour (hover to see other rain measurements)
** Current wind speed in m/s (hover to see current wind gust speed)